DW6462 Weather Reports


time (UTC)temp
C
wind
direction
speed
KPH
gust
KPH
rain 1hr
cm
rain 24hr
cm
rain mn
cm
humidity
%
barometer
mb
20260906003849 29 253 0.0 0.0 0.00 0.00 0.00 85 1008.9
20260906002339 30 253 0.0 0.0 0.00 0.00 0.00 83 1008.9
20260906001351 30 253 0.0 0.0 0.00 0.00 0.00 82 1009.0
20260906000844 30 253 0.0 0.0 0.00 0.00 0.00 82 1008.9
20260906000341 30 253 0.0 0.0 0.00 0.00 0.00 80 1009.0
20260905235835 31 253 0.0 0.0 0.00 0.00 0.00 79 1009.0
20260905235348 31 253 0.0 0.0 0.00 0.00 0.00 79 1009.1
20260905234339 31 253 0.0 1.6 0.00 0.00 0.00 75 1009.1
20260905233834 32 260 0.0 0.0 0.00 0.00 0.00 74 1009.0
20260905233348 32 260 0.0 0.0 0.00 0.00 0.00 73 1009.0
20260905232840 32 260 0.0 0.0 0.00 0.00 0.00 73 1009.0
20260905232338 33 260 0.0 0.0 0.00 0.00 0.00 71 1009.0
20260905231351 33 260 0.0 1.6 0.00 0.00 0.00 68 1009.0
20260905225838 35 260 0.0 1.6 0.00 0.00 0.00 66 1009.1
20260905225334 35 260 0.0 1.6 0.00 0.00 0.00 65 1009.1
20260905224849 35 260 0.0 3.2 0.00 0.00 0.00 64 1009.1
20260905224343 35 310 0.0 4.8 0.00 0.00 0.00 59 1009.2
20260905223839 35 311 1.6 4.8 0.00 0.00 0.00 61 1009.2
20260905223354 35 267 0.0 4.8 0.00 0.00 0.00 57 1009.2
20260905222847 35 277 0.0 6.4 0.00 0.00 0.00 61 1009.2
20260905222341 36 265 4.8 6.4 0.00 0.00 0.00 55 1009.0
20260905221834 36 234 3.2 8.0 0.00 0.00 0.00 53 1009.0
20260905221349 36 296 4.8 8.0 0.00 0.00 0.00 52 1009.1
20260905220843 36 242 6.4 8.0 0.00 0.00 0.00 53 1009.0
20260905220337 36 268 1.6 6.4 0.00 0.00 0.00 51 1009.0
20260905215852 36 277 3.2 8.0 0.00 0.00 0.00 50 1009.1
20260905214843 36 262 3.2 6.4 0.00 0.00 0.00 51 1009.2
20260905213852 36 290 1.6 8.0 0.00 0.00 0.00 51 1009.4
20260905213347 36 275 6.4 8.0 0.00 0.00 0.00 55 1009.4
20260905212842 36 263 6.4 8.0 0.00 0.00 0.00 53 1009.4
20260905212341 36 252 3.2 6.4 0.00 0.00 0.00 51 1009.5
20260905211833 36 282 1.6 8.0 0.00 0.00 0.00 50 1009.5
20260905210844 36 268 4.8 6.4 0.00 0.00 0.00 54 1009.5
20260905210340 36 245 3.2 11.3 0.00 0.00 0.00 53 1009.5
20260905205835 36 294 4.8 11.3 0.00 0.00 0.00 55 1009.5
20260905205347 36 235 4.8 6.4 0.00 0.00 0.00 52 1009.7
20260905204841 36 240 4.8 6.4 0.00 0.00 0.00 52 1009.7
20260905204338 36 228 4.8 8.0 0.00 0.00 0.00 51 1009.8
20260905203833 36 232 3.2 8.0 0.00 0.00 0.00 55 1009.7
20260905203349 36 236 4.8 8.0 0.00 0.00 0.00 54 1009.8
20260905202845 36 204 1.6 6.4 0.00 0.00 0.00 50 1009.9
20260905202342 36 221 1.6 9.7 0.00 0.00 0.00 53 1009.9
20260905201337 36 222 3.2 9.7 0.00 0.00 0.00 56 1010.0
20260905200834 36 236 0.0 9.7 0.00 0.00 0.00 56 1010.1
20260905200351 36 246 4.8 9.7 0.00 0.00 0.00 55 1010.1
20260905195845 36 213 6.4 9.7 0.00 0.00 0.00 54 1010.3
20260905194333 36 217 3.2 6.4 0.00 0.00 0.00 54 1010.5
20260905193847 36 234 0.0 9.7 0.00 0.00 0.00 52 1010.6
20260905193345 36 234 0.0 9.7 0.00 0.00 0.00 56 1010.6
20260905192841 35 220 0.0 0.0 0.00 0.00 0.00 57 1010.8
20260905192336 35 238 0.0 0.0 0.00 0.00 0.00 55 1010.8
20260905191850 35 251 0.0 0.0 0.00 0.00 0.00 53 1010.9
20260905191345 36 252 0.0 0.0 0.00 0.00 0.00 54 1011.0
20260905190840 36 234 0.0 0.0 0.00 0.00 0.00 55 1011.2
20260905185852 35 227 0.0 0.0 0.00 0.00 0.00 53 1011.2
20260905185348 35 187 0.0 0.0 0.00 0.00 0.00 56 1011.2
20260905184843 35 208 0.0 0.0 0.00 0.00 0.00 56 1011.2
20260905184338 35 229 0.0 0.0 0.00 0.00 0.00 57 1011.3
20260905183852 35 246 0.0 0.0 0.00 0.00 0.00 54 1011.3
20260905183346 35 240 0.0 0.0 0.00 0.00 0.00 55 1011.3
20260905182838 35 252 0.0 0.0 0.00 0.00 0.00 55 1011.4
20260905182333 35 324 0.0 0.0 0.00 0.00 0.00 53 1011.5
20260905181848 35 342 0.0 0.0 0.00 0.00 0.00 53 1011.5
20260905181344 35 323 0.0 0.0 0.00 0.00 0.00 53 1011.7
20260905180839 35 9 0.0 0.0 0.00 0.00 0.00 54 1011.7
20260905180337 35 329 0.0 0.0 0.00 0.00 0.00 55 1011.8
20260905175852 35 319 0.0 0.0 0.00 0.00 0.00 56 1011.9
20260905175346 35 334 0.0 0.0 0.00 0.00 0.00 57 1011.8
20260905174842 35 334 0.0 0.0 0.00 0.00 0.00 56 1011.9
20260905173834 35 235 0.0 0.0 0.00 0.00 0.00 56 1012.0
20260905173349 35 235 0.0 0.0 0.00 0.00 0.00 57 1012.1
20260905172844 35 253 0.0 0.0 0.00 0.00 0.00 59 1012.2
20260905172337 34 217 0.0 0.0 0.00 0.00 0.00 57 1012.3
20260905171834 35 252 0.0 0.0 0.00 0.00 0.00 58 1012.3
20260905171349 34 261 0.0 0.0 0.00 0.00 0.00 60 1012.3
20260905170843 34 228 0.0 0.0 0.00 0.00 0.00 62 1012.3
20260905170336 34 225 0.0 0.0 0.00 0.00 0.00 62 1012.5
20260905165347 34 236 0.0 0.0 0.00 0.00 0.00 62 1012.5
20260905164336 33 236 0.0 0.0 0.00 0.00 0.00 63 1012.5
20260905163851 33 232 0.0 0.0 0.00 0.00 0.00 64 1012.6
20260905163345 33 214 0.0 0.0 0.00 0.00 0.00 65 1012.6
20260905162841 33 214 0.0 0.0 0.00 0.00 0.00 66 1012.6
20260905161851 33 214 0.0 0.0 0.00 0.00 0.00 65 1012.7
20260905161345 32 214 0.0 0.0 0.00 0.00 0.00 67 1012.7
20260905160843 32 240 0.0 0.0 0.00 0.00 0.00 68 1012.7
20260905160338 32 219 0.0 0.0 0.00 0.00 0.00 68 1012.8
20260905155836 32 264 0.0 0.0 0.00 0.00 0.00 71 1012.8
20260905155350 32 264 0.0 0.0 0.00 0.00 0.00 74 1012.8
20260905154845 31 264 0.0 0.0 0.00 0.00 0.00 76 1012.8
20260905154340 31 264 0.0 0.0 0.00 0.00 0.00 75 1012.8
20260905153835 31 264 0.0 0.0 0.00 0.00 0.00 76 1012.9
20260905153352 31 264 0.0 0.0 0.00 0.00 0.00 76 1012.9
20260905152846 31 264 0.0 0.0 0.00 0.00 0.00 76 1013.0
20260905152339 31 264 0.0 0.0 0.00 0.00 0.00 76 1013.0
20260905151853 31 264 0.0 0.0 0.00 0.00 0.00 77 1013.0
20260905151348 30 264 0.0 0.0 0.00 0.00 0.00 78 1013.0
20260905150843 30 264 0.0 0.0 0.00 0.00 0.00 79 1013.0
20260905150337 30 264 0.0 0.0 0.00 0.00 0.00 80 1013.0
20260905145850 30 264 0.0 0.0 0.00 0.00 0.00 80 1013.0
20260905144840 29 264 0.0 0.0 0.00 0.00 0.00 82 1013.0
20260905143850 29 315 0.0 0.0 0.00 0.00 0.00 81 1013.1
20260905143344 29 315 0.0 0.0 0.00 0.00 0.00 81 1013.1
20260905142841 29 315 0.0 0.0 0.00 0.00 0.00 81 1013.0
20260905142336 28 315 0.0 0.0 0.00 0.00 0.00 82 1013.0
20260905141850 28 315 0.0 0.0 0.00 0.00 0.00 81 1013.0
20260905141348 28 315 0.0 0.0 0.00 0.00 0.00 82 1013.0
20260905140842 28 315 0.0 0.0 0.00 0.00 0.00 82 1013.0
20260905140337 28 315 0.0 0.0 0.00 0.00 0.00 82 1013.0
20260905135347 27 315 0.0 0.0 0.00 0.00 0.00 85 1013.0
20260905134842 27 315 0.0 0.0 0.00 0.00 0.00 88 1013.0
20260905133351 26 315 0.0 0.0 0.00 0.00 0.00 94 1013.0
20260905132846 26 315 0.0 0.0 0.00 0.00 0.00 96 1013.0
20260905132343 25 315 0.0 0.0 0.00 0.00 0.00 97 1013.0
20260905131838 25 315 0.0 0.0 0.00 0.00 0.00 97 1013.0
20260905131353 25 315 0.0 0.0 0.00 0.00 0.00 97 1013.0
20260905130846 25 315 0.0 0.0 0.00 0.00 0.00 97 1013.0
20260905130341 25 315 0.0 0.0 0.00 0.00 0.00 97 1013.0
20260905125837 25 315 0.0 0.0 0.00 0.00 0.00 97 1013.0
20260905125350 24 315 0.0 0.0 0.00 0.00 0.00 97 1013.0
20260905124845 24 315 0.0 0.0 0.00 0.00 0.00 98 1012.9
20260905124343 24 315 0.0 0.0 0.00 0.00 0.00 97 1012.8
20260905123836 23 315 0.0 0.0 0.00 0.00 0.00 97 1012.8
20260905123352 23 315 0.0 0.0 0.00 0.00 0.00 97 1012.8
20260905122847 23 315 0.0 0.0 0.00 0.00 0.00 97 1012.8
20260905122339 23 315 0.0 0.0 0.00 0.00 0.00 97 1012.8
20260905121834 23 315 0.0 0.0 0.00 0.00 0.00 97 1012.8
20260905121348 23 315 0.0 0.0 0.00 0.00 0.00 97 1012.7
20260905120844 23 315 0.0 0.0 0.00 0.00 0.00 97 1012.7
20260905120339 23 315 0.0 0.0 0.00 0.00 0.00 97 1012.7
20260905115834 23 315 0.0 0.0 0.00 0.00 0.00 98 1012.6
20260905115350 23 315 0.0 0.0 0.00 0.00 0.00 97 1012.6
20260905114846 23 315 0.0 0.0 0.00 0.00 0.00 97 1012.5
20260905113837 23 315 0.0 0.0 0.00 0.00 0.00 97 1012.4
20260905113350 23 315 0.0 0.0 0.00 0.00 0.00 97 1012.3
20260905112845 23 315 0.0 0.0 0.00 0.00 0.00 97 1012.4
20260905111835 23 315 0.0 0.0 0.00 0.00 0.00 97 1012.2
20260905111350 23 315 0.0 0.0 0.00 0.00 0.00 97 1012.1
20260905110845 23 315 0.0 0.0 0.00 0.00 0.00 98 1012.2
20260905110345 23 315 0.0 0.0 0.00 0.00 0.00 97 1012.1
20260905105842 23 315 0.0 0.0 0.00 0.00 0.00 97 1012.1
20260905105338 23 315 0.0 0.0 0.00 0.00 0.00 97 1012.1
20260905104852 23 315 0.0 0.0 0.00 0.00 0.00 97 1012.1
20260905104347 23 315 0.0 0.0 0.00 0.00 0.00 97 1012.1
20260905103842 23 315 0.0 0.0 0.00 0.00 0.00 97 1012.1
20260905102835 23 315 0.0 0.0 0.00 0.00 0.00 97 1012.0
20260905102352 23 315 0.0 0.0 0.00 0.00 0.00 97 1012.0
20260905101848 24 315 0.0 0.0 0.00 0.00 0.00 97 1011.9
20260905101343 24 315 0.0 0.0 0.00 0.00 0.00 97 1011.9
20260905100840 24 315 0.0 0.0 0.00 0.00 0.00 97 1012.0
20260905100336 24 315 0.0 0.0 0.00 0.00 0.00 97 1011.9
20260905095350 24 315 0.0 0.0 0.00 0.00 0.00 97 1011.8
20260905094845 25 315 0.0 0.0 0.00 0.00 0.00 97 1011.8
20260905094341 25 315 0.0 0.0 0.00 0.00 0.00 97 1011.7
20260905093836 25 315 0.0 0.0 0.00 0.00 0.00 97 1011.6
20260905093335 25 315 0.0 0.0 0.00 0.00 0.00 97 1011.6
20260905092347 24 315 0.0 0.0 0.00 0.00 0.00 97 1011.7
20260905091843 24 315 0.0 0.0 0.00 0.00 0.00 97 1011.6
20260905091338 24 315 0.0 0.0 0.00 0.00 0.00 97 1011.6
20260905090834 24 315 0.0 0.0 0.00 0.00 0.00 97 1011.6
20260905090349 24 315 0.0 0.0 0.00 0.00 0.00 97 1011.7
20260905085845 24 315 0.0 0.0 0.00 0.00 0.00 97 1011.8
20260905085339 25 315 0.0 0.0 0.00 0.00 0.00 97 1011.7
20260905084852 25 315 0.0 0.0 0.00 0.00 0.00 97 1011.8
20260905084348 25 315 0.0 0.0 0.00 0.00 0.00 97 1011.7
20260905083843 25 315 0.0 0.0 0.00 0.00 0.00 97 1011.7
20260905083337 25 315 0.0 0.0 0.00 0.00 0.00 97 1011.7
20260905082834 25 315 0.0 0.0 0.00 0.00 0.00 97 1011.7
20260905081843 25 315 0.0 0.0 0.00 0.00 0.00 97 1011.7
20260905081339 25 315 0.0 0.0 0.00 0.00 0.00 97 1011.7
20260905080853 25 315 0.0 0.0 0.00 0.00 0.00 97 1011.6
20260905080350 25 315 0.0 0.0 0.00 0.00 0.00 97 1011.6
20260905075846 25 315 0.0 0.0 0.00 0.00 0.00 97 1011.6
20260905075346 25 315 0.0 0.0 0.00 0.00 0.00 97 1011.7
20260905074841 25 315 0.0 0.0 0.00 0.00 0.00 96 1011.7
20260905074353 25 315 0.0 0.0 0.00 0.00 0.00 97 1011.7
20260905073845 25 315 0.0 0.0 0.00 0.00 0.00 97 1011.7
20260905073341 25 315 0.0 0.0 0.00 0.00 0.00 97 1011.7
20260905072333 25 315 0.0 0.0 0.00 0.00 0.00 97 1011.7
20260905071850 25 315 0.0 0.0 0.00 0.00 0.00 97 1011.7
20260905071345 25 315 0.0 0.0 0.00 0.00 0.00 97 1011.8
20260905070840 25 315 0.0 0.0 0.00 0.00 0.00 97 1011.8
20260905070336 25 315 0.0 0.0 0.00 0.00 0.00 97 1011.8
20260905065345 25 315 0.0 0.0 0.00 0.00 0.00 96 1011.9
20260905064838 25 315 0.0 0.0 0.00 0.00 0.00 96 1011.9
20260905063847 25 315 0.0 0.0 0.00 0.00 0.00 96 1012.0
20260905063340 25 315 0.0 0.0 0.00 0.00 0.00 96 1011.9
20260905062835 25 315 0.0 0.0 0.00 0.00 0.00 96 1012.0
20260905061846 25 315 0.0 0.0 0.00 0.00 0.00 96 1012.1
20260905061341 25 315 0.0 0.0 0.00 0.00 0.00 96 1012.1
20260905060838 25 315 0.0 0.0 0.00 0.00 0.00 96 1012.0
20260905060337 25 315 0.0 0.0 0.00 0.00 0.00 96 1012.0
20260905055851 25 315 0.0 0.0 0.00 0.00 0.00 96 1012.0
20260905054844 26 315 0.0 0.0 0.00 0.00 0.00 96 1012.1
20260905054340 26 315 0.0 0.0 0.00 0.00 0.00 96 1012.2
20260905053836 26 315 0.0 0.0 0.00 0.00 0.00 96 1012.1
20260905053351 26 315 0.0 0.0 0.00 0.00 0.00 96 1012.1
20260905052845 26 315 0.0 0.0 0.00 0.00 0.00 96 1012.2
20260905052341 26 315 0.0 0.0 0.00 0.00 0.00 96 1012.2
20260905051837 26 315 0.0 0.0 0.00 0.00 0.00 96 1012.2
20260905050846 26 315 0.0 0.0 0.00 0.00 0.00 96 1012.3
20260905050339 26 315 0.0 0.0 0.00 0.00 0.00 96 1012.3
20260905045351 26 315 0.0 0.0 0.00 0.00 0.00 95 1012.2
20260905044845 26 268 0.0 0.0 0.00 0.00 0.00 95 1012.2
20260905044337 26 268 0.0 0.0 0.00 0.00 0.00 95 1012.3
20260905043349 26 268 0.0 0.0 0.00 0.00 0.00 95 1012.2
20260905042841 26 268 0.0 0.0 0.00 0.00 0.00 95 1012.2
20260905041852 27 268 0.0 0.0 0.00 0.00 0.00 95 1012.2
20260905041348 27 268 0.0 0.0 0.00 0.00 0.00 96 1012.1
20260905040343 27 268 0.0 0.0 0.00 0.00 0.00 96 1012.2
20260905035340 27 268 0.0 0.0 0.00 0.00 0.00 95 1012.3
20260905034836 27 268 0.0 0.0 0.00 0.00 0.00 95 1012.3
20260905034351 27 268 0.0 0.0 0.00 0.00 0.00 96 1012.2
20260905033844 27 268 0.0 0.0 0.00 0.00 0.00 95 1012.2
20260905033339 27 268 0.0 0.0 0.00 0.00 0.00 95 1012.2
20260905032833 27 268 0.0 0.0 0.00 0.00 0.00 95 1012.2
20260905032349 27 268 0.0 0.0 0.00 0.00 0.00 95 1012.3
20260905031844 27 268 0.0 0.0 0.00 0.00 0.00 95 1012.4
20260905031338 27 268 0.0 0.0 0.00 0.00 0.00 95 1012.5
20260905030851 27 268 0.0 0.0 0.00 0.00 0.00 95 1012.5
20260905030347 26 268 0.0 0.0 0.00 0.00 0.00 94 1012.5
20260905025842 26 268 0.0 0.0 0.00 0.00 0.00 94 1012.6
20260905025335 27 268 0.0 0.0 0.00 0.00 0.00 94 1012.5
20260905023846 27 268 0.0 0.0 0.00 0.00 0.00 94 1012.5
20260905023340 27 268 0.0 0.0 0.00 0.00 0.00 93 1012.4
20260905022836 27 268 0.0 0.0 0.00 0.00 0.00 93 1012.4
20260905022351 27 268 0.0 0.0 0.00 0.00 0.00 93 1012.4
20260905021344 27 268 0.0 0.0 0.00 0.00 0.00 93 1012.5
20260905020342 27 268 0.0 0.0 0.00 0.00 0.00 92 1012.4
20260905015334 27 268 0.0 0.0 0.00 0.00 0.00 92 1012.4
20260905014848 27 268 0.0 0.0 0.00 0.00 0.00 91 1012.3
20260905014341 28 268 0.0 0.0 0.00 0.00 0.00 91 1012.2
20260905013835 28 268 0.0 0.0 0.00 0.00 0.00 90 1012.2
20260905013349 28 268 0.0 0.0 0.00 0.00 0.00 90 1012.1
20260905012843 28 268 0.0 0.0 0.00 0.00 0.00 89 1012.0
20260905012338 28 268 0.0 0.0 0.00 0.00 0.00 89 1012.0
20260905011348 28 268 0.0 0.0 0.00 0.00 0.00 88 1011.9
20260905010339 28 268 0.0 0.0 0.00 0.00 0.00 88 1011.8
20260905005833 28 268 0.0 0.0 0.00 0.00 0.00 88 1011.8
20260905005347 28 268 0.0 0.0 0.00 0.00 0.00 88 1011.7
20260905004845 28 268 0.0 0.0 0.00 0.00 0.00 87 1011.7
20260905004338 29 268 0.0 0.0 0.00 0.00 0.00 87 1011.7